Notices

What's New in latest Release from April 7th, 2021:

- Updated Glossary, including Speed of Maximum Gust, and Total Hourly Precipitation

- Updated national and regional climate services offices contacts and prices information

- Addition of station inventory lists for 1981-2010, 1971-2000, and 1961-1990 Normals.

If you haven't already, please take our survey and provide feedback about our website: https://eccc.sondage-survey.ca/f/LanguageSelection.aspx?s=442ca660-fcf1-47c0-95a9-59707d6fd709

Hourly Data Report for April 16, 2021

CORNER BROOK
NEWFOUNDLAND
Current Station Operator: ECCC - MSC

48°56'00.000" N
57°55'00.000" W
151.80 m
8401298
71973
WKB

Download Data

Hourly Data (April 2021)
Hourly Data Report for April 16, 2021
TIME
LST
Temp Definition
°C
Dew Point Definition
°C
Rel Hum Definition
%
Precip. Amount Definition
mm

Wind Dir Definition
10's deg

Wind Spd Definition
km/h
Visibility Definition
km
Stn Press Definition
kPa
Hmdx Definition


Wind Chill Definition


Weather Definition


00:30 0.1 -1.8 87 0.0 6 16   100.00     LegendNANA
01:30 0.0 -2.4 84 0.0 7 12   100.00   -4 LegendNANA
02:30 -0.2 -3.1 80 0.0 9 12   100.03   -4 LegendNANA
03:30 -0.7 -3.8 79 0.0 8 19   100.02   -6 LegendNANA
04:30 -0.9 -3.7 81 0.0 8 12   100.03   -5 LegendNANA
05:30 -0.8 -3.7 81 0.0 8 13   100.02   -5 LegendNANA
06:30 -0.8 -3.8 80 0.0 9 11   100.06   -5 LegendNANA
07:30 -0.5 -4.1 76 0.0 7 20   100.08   -6 LegendNANA
08:30 0.1 -4.3 72 0.0 7 15   100.10     LegendNANA
09:30 1.2 -4.3 67 0.0 7 18   100.10     LegendNANA
10:30 2.8 -3.7 62 0.0 7 18   100.09     LegendNANA
11:30 4.9 -3.7 53 0.0 9 13   100.07     LegendNANA
12:30 5.3 -3.3 54 0.0 5 17   100.02     LegendNANA
13:30 6.1 -3.4 51 0.0 8 13   100.01     LegendNANA
14:30 7.1 -3.0 48 0.0 7 11   99.97     LegendNANA
15:30 7.5 -3.2 46 0.0 7 13   99.92     LegendNANA
16:30 7.5 -3.5 46 0.0 7 12   99.90     LegendNANA
17:30 6.3 -3.6 49 0.0 8 12   99.92     LegendNANA
18:30 3.8 -4.3 55 0.0 10 10   99.94     LegendNANA
19:30 1.2 -4.6 66 0.0 11 11   100.03     LegendNANA
20:30 0.1 -4.8 70 0.0 9 11   100.11     LegendNANA
21:30 -0.7 -5.2 71 0.0 9 7   100.13   -3 LegendNANA
22:30 -0.8 -5.2 72 0.0 9 11   100.12   -5 LegendNANA
23:30 -0.9 -5.2 73 0.0 10 7   100.09   -3 LegendNANA

Notes on Data Quality.

Legend

  • E = Estimated
  • M = Missing
  • NA = Not Available*
  • [empty] = Indicates an unobserved value
Date modified: